User: anonymous   Login
Location: Bismarck
(46.7731°N, 100.8200°W)
Time: 20:45:23
(UTC-05:00)
Language:

Landsat 7 - Orbit

View from above orbital plane
View from above orbital plane
View from above satellite
View from above satellite

Ground track
Ground track

The orbit data is extracted from the following two-line orbital elements,

1 25682U 99020A   17177.19021907 +.00000180 +00000-0 +50083-4 0  9994
2 25682 098.2108 248.2263 0000881 053.3787 306.7503 14.57110646967900
Epoch (UTC): 26 June 2017 04:33:54
Eccentricity: 0.0000881
inclination: 98.2108°
perigee height: 702 km
apogee height: 703 km
right ascension of ascending node: 248.2263°
argument of perigee: 53.3787°
revolutions per day: 14.57110646
mean anomaly at epoch: 306.7503°
orbit number at epoch: 96790

The dashed part of the orbit path shows where the satellite is in the earth's shadow,  

DLR